Tracking 31030 objects as of 17-Jul-2025
HD Live streaming from Space Station
objects crossing your sky now

ICEYE-X17

Track ICEYE-X17 now!
10-day predictions


NORAD ID: 52762
Int'l Code: 2022-057AG
Perigee: 304.0 km
Apogee: 313.8 km
Inclination: 97.6 °
Period: 90.6 minutes
Semi major axis: 6679 km
RCS: Unknown
Launch date: May 25, 2022
Source: United States (US)
Launch site: AIR FORCE EASTERN TEST RANGE (AFETR)
Your satellite tracking list
Your tracking list is empty




NASA's NSSDC Master Catalog

Two Line Element Set (TLE):
1 52762U 22057AG  25197.83768181  .00297306  34650-4  99040-3 0  9998
2 52762  97.5851 346.3267 0007304 165.1658 194.9830 15.90192011175428
Source of the keplerian elements: AFSPC